Location: Howard City Library
(37.4684°N, 96.2639°W)
Time: 18:17:25
(UTC+00:00)

Cosmos 2221 - Pass Details

Date: 18 February 2020
Orbit: 593 x 615 km, 82.5° (Epoch: 27 March)

Event Time Altitude Azimuth Distance (km) Brightness Sun altitude
Exits shadow 10:54:40 12° 161° (SSE) 1,779 5.0 -27.7°
Maximum altitude 10:58:18 42° 92° (E) 852 3.6 -27.0°
Drops below altitude 10° 11:02:21 10° 22° (NNE) 1,944 5.4 -26.2°
Sets 11:04:39 0° 15° (NNE) 2,854 6.2 -25.8°
